COSMOS 1823 DEB, 18806

Orbit data source: Space-Track

COSMOS 1823 DEB, 18806 is space debris in LEO originally from a launch on Fri, 20 Feb 1987 UTC launched from the Plesetsk Missile And Space Complex (PKMTR). Debris objects in space refer to the collection of defunct objects orbiting the Earth. Examples of debris include non-operational satellites, rocket bodies, and fragments generated from explosions, collisions, or faulty payload assembly.

Loading next visibility...
Identifier
18806, 1987-020AS
Orbit
LEO
Country
Flag of CISCIS
Related business
Manufacturer
Unknown
Mission
Spacecraft
Bus & Motor
Unknown
Mass
Unknown
Launch date (UTC)
1987-02-20 (39 years ago)
Launch vehicle
Unknown
Launch site
Plesetsk Missile And Space Complex (PKMTR)
Object type
Payload
Rocket body
Debris
Shape & HBR
Unknown shape, 0.1 m
Radar Cross Section
Medium (>0.1 m² and <1 m²)

Expand to show TLE details & history
Last TLE update: 2 days ago

TLE from 2 days ago
0 COSMOS 1823 DEB
1 18806U 87020AS  26171.45291519  .00000114  00000-0  10300-2 0  9995
2 18806  73.4782 168.7925 0086494 340.6713 173.6647 12.35557462733196
Epoch: 2026-06-20T10:52Z
TLE epoch observation values (Epoch: 2026-06-20T10:52:11.872Z)
Latitude
24.45903°
Longitude
-90.64089°
Altitude
1,595.874 km
Speed
7.043 km/s
True Right ascension
22h 44m 18s
True Declination
24° 20' 36"
Sunlit
Object was in daylight at epoch
Visualization orbit readout
Latitude
Unknown
Longitude
Unknown
Altitude
Unknown
Speed
Unknown
Apparent Right ascension
Unknown
Apparent Declination
Unknown
Sunlit
N/A
Visualization observer readout
Local Sidereal Time
00:39:27
Azimuth
Unknown
Elevation
Unknown
Doppler factor
Unknown
Orbital elements
Apogee altitude
1,591.73 km
Perigee altitude
1,455.043 km
Semi-major axis
7,901.524 km
Eccentricity
0.00865
Inclination
73.4782°
RAAN
168.7925°
Arg. of periapsis
340.6713°
True anomaly
173.77291°
Mean anomaly
173.6647°
Eccentric anomaly
173.71892°
Mean motion
3.09013 °/min
Orbital period
116.5 mins
BSTAR
0.00103
Loading maneuver chart data...
Computing Atmospheric mass density...

Documentation

Showing up to 5 results
|